Chatham, MA

8:38 PM EDT on July 26, 2017 (GMT -0400)
Chatham Municipal

Weather History for KCQX - May, 2013

Change the Weather History Date:

Saturday, May 4, 2013

  Actual Average Record
Temperature  
Mean Temperature 48 °F -  
Max Temperature 52 °F 57 °F 80 °F (2001)
Min Temperature 44 °F 43 °F 37 °F (2003)
Degree Days  
Heating Degree Days 18    
Moisture  
Dew Point 39 °F    
Average Humidity 75    
Maximum Humidity 93    
Minimum Humidity 61    
Precipitation  
Precipitation 0.00 in - - ()
Sea Level Pressure  
Sea Level Pressure 30.33 in    
Wind  
Wind Speed 10 mph (NE)    
Max Wind Speed 20 mph    
Max Gust Speed 25 mph    
Visibility 10 miles    
Events      
Averages and records for this station are not official NWS values.
T = Trace of Precipitation, MM = Missing Value Source: NWS Daily Summary

Daily Weather History Graph

Daily Weather History Graph

Search for Another Location

Airport or City:

Trip Planner

Search our weather history database for the weather conditions in past years. The results will help you decide how hot, cold, wet, or windy it might be!

Date:

Astronomy

May. 04, 2013 Rise Set
Actual Time 5:32 AM EDT 7:41 PM EDT
Civil Twilight 5:01 AM EDT 8:12 PM EDT
Nautical Twilight 4:24 AM EDT 8:50 PM EDT
Astronomical Twilight 3:43 AM EDT 9:31 PM EDT
Moon 2:33 AM EDT (5/4) 2:31 PM EDT (5/4)
Length of Visible Light 15h 10m
Length of Day
14h 09m
Waning Crescent, 27% of the Moon is Illuminated
May 4
Waning Crescent
May 9
New
May 18
First Quarter
May 25
Full
May 31
Last Quarter

Hourly Weather History & Observations

Time (EDT) Temp. Windchill Dew Point Humidity Pressure Visibility Wind Dir Wind Speed Gust Speed Precip Events Conditions
12:30 AM 44.6 °F 42.2 °F 42.8 °F 93% 30.36 in 10.0 mi NNE 4.6 mph - N/A   Partly Cloudy
12:52 AM 45.0 °F 40.6 °F 42.1 °F 90% 30.36 in 10.0 mi NNE 8.1 mph - N/A   Partly Cloudy
1:52 AM 46.0 °F 41.9 °F 42.1 °F 86% 30.34 in 10.0 mi NNE 8.1 mph - N/A   Clear
2:52 AM 46.0 °F 42.5 °F 42.1 °F 86% 30.33 in 10.0 mi NE 6.9 mph 16.1 mph N/A   Clear
3:52 AM 46.0 °F 41.9 °F 43.0 °F 89% 30.32 in 10.0 mi NE 8.1 mph - N/A   Clear
4:52 AM 46.0 °F 41.9 °F 42.1 °F 86% 30.32 in 10.0 mi NE 8.1 mph - N/A   Clear
5:52 AM 45.0 °F 40.1 °F 41.0 °F 86% 30.34 in 10.0 mi NE 9.2 mph - N/A   Clear
6:52 AM 46.9 °F - 39.9 °F 77% 30.35 in 10.0 mi NE 10.4 mph - N/A   Clear
7:52 AM 48.0 °F - 39.9 °F 74% 30.35 in 10.0 mi NE 12.7 mph 18.4 mph N/A   Partly Cloudy
8:52 AM 48.0 °F - 39.0 °F 71% 30.35 in 10.0 mi NE 15.0 mph 21.9 mph N/A   Partly Cloudy
9:52 AM 50.0 °F - 39.0 °F 66% 30.35 in 10.0 mi NE 16.1 mph 23.0 mph N/A   Clear
10:52 AM 50.0 °F - 37.9 °F 63% 30.36 in 10.0 mi NE 15.0 mph 23.0 mph N/A   Clear
11:52 AM 51.1 °F - 37.9 °F 61% 30.35 in 10.0 mi NE 13.8 mph 24.2 mph N/A   Clear
12:52 PM 50.0 °F - 37.0 °F 61% 30.35 in 10.0 mi NE 19.6 mph 25.3 mph N/A   Clear
1:52 PM 50.0 °F - 37.0 °F 61% 30.35 in 10.0 mi ENE 19.6 mph 25.3 mph N/A   Clear
2:52 PM 48.9 °F - 36.0 °F 61% 30.34 in 10.0 mi NE 15.0 mph 24.2 mph N/A   Scattered Clouds
3:52 PM 48.9 °F - 37.0 °F 64% 30.33 in 10.0 mi NE 15.0 mph 21.9 mph N/A   Mostly Cloudy
4:11 PM 48.2 °F - 37.4 °F 66% 30.33 in 10.0 mi NE 16.1 mph 24.2 mph N/A   Mostly Cloudy
4:52 PM 48.9 °F - 37.9 °F 66% 30.33 in 10.0 mi NE 16.1 mph 21.9 mph N/A   Mostly Cloudy
5:50 PM 48.2 °F - 37.4 °F 66% 30.32 in 10.0 mi NE 11.5 mph 18.4 mph N/A   Mostly Cloudy
5:52 PM 48.0 °F - 37.9 °F 68% 30.33 in 10.0 mi NE 12.7 mph 18.4 mph N/A   Mostly Cloudy
6:08 PM 48.2 °F - 37.4 °F 66% 30.32 in 10.0 mi NE 10.4 mph - N/A   Mostly Cloudy
6:52 PM 46.9 °F - 37.9 °F 71% 30.32 in 10.0 mi NE 13.8 mph 18.4 mph N/A   Scattered Clouds
7:52 PM 46.0 °F 41.4 °F 39.0 °F 76% 30.32 in 10.0 mi NNE 9.2 mph - N/A   Scattered Clouds
8:52 PM 46.0 °F 42.5 °F 39.0 °F 76% 30.32 in 10.0 mi NE 6.9 mph - N/A   Mostly Cloudy
9:10 PM 46.4 °F 42.9 °F 39.2 °F 76% 30.32 in 10.0 mi NE 6.9 mph - N/A   Scattered Clouds
9:47 PM 44.6 °F 40.2 °F 39.2 °F 81% 30.32 in 10.0 mi NE 8.1 mph - N/A   Mostly Cloudy
9:52 PM 45.0 °F 39.7 °F 39.0 °F 80% 30.33 in 10.0 mi NE 10.4 mph 18.4 mph N/A   Mostly Cloudy
10:07 PM 44.6 °F 40.2 °F 39.2 °F 81% 30.32 in 10.0 mi NE 8.1 mph - N/A   Scattered Clouds
10:52 PM 45.0 °F 40.6 °F 39.9 °F 82% 30.32 in 10.0 mi NE 8.1 mph - N/A   Clear
11:21 PM 44.6 °F 39.7 °F 39.2 °F 81% 30.31 in 10.0 mi NE 9.2 mph - N/A   Mostly Cloudy
11:33 PM 44.6 °F 40.7 °F 39.2 °F 81% 30.31 in 10.0 mi NE 6.9 mph - N/A   Scattered Clouds
11:52 PM 45.0 °F 39.7 °F 39.9 °F 82% 30.31 in 10.0 mi NE 10.4 mph 16.1 mph N/A   Partly Cloudy